• In Deutschland
  • Länderverzeichnis
  • Für 7 Tage
  • Wassertemperatur
  • Satellitenkarten
  • Wetterkarte
  • Widgets
  • user-avatar
    Anmelden

    Stündliche Wetter Eisenstadt

    Heute, 20 Oktober, Freitag

    Zeit Temperatur Niederschläge Wind Luftdruck Luftfeuchtigkeit
    00:00 +9°C° 0 mm 0 m/S 722 mmHg 79%
    01:00 +9°C° 0 mm 0 m/S 722 mmHg 77%
    02:00 +9°C° 0 mm 0 m/S 722 mmHg 78%
    03:00 +8°C° 0 mm 0 m/S 722 mmHg 79%
    04:00 +8°C° 0 mm 0 m/S 722 mmHg 80%
    05:00 +8°C° 0 mm 0 m/S 722 mmHg 80%
    06:00 +8°C° 0 mm 0 m/S 722 mmHg 80%
    07:00 +8°C° 0 mm 0 m/S 723 mmHg 78%
    08:00 +10°C° 0 mm 0 m/S 723 mmHg 71%
    09:00 +13°C° 0 mm 1 m/S 723 mmHg 64%
    10:00 +15°C° 0 mm 1 m/S 723 mmHg 58%
    11:00 +16°C° 0 mm 1 m/S 723 mmHg 55%
    12:00 +18°C° 0 mm 1 m/S 723 mmHg 52%
    13:00 +18°C° 0 mm 1 m/S 723 mmHg 51%
    14:00 +18°C° 0 mm 1 m/S 723 mmHg 55%
    15:00 +16°C° 0 mm 1 m/S 723 mmHg 58%
    16:00 +15°C° 0 mm 0 m/S 723 mmHg 61%
    17:00 +14°C° 0 mm 1 m/S 723 mmHg 65%
    18:00 +13°C° 0 mm 1 m/S 723 mmHg 70%
    19:00 +12°C° 0 mm 1 m/S 723 mmHg 74%
    20:00 +11°C° 0 mm 1 m/S 723 mmHg 74%
    21:00 +11°C° 0 mm 1 m/S 723 mmHg 74%
    22:00 +11°C° 0 mm 1 m/S 723 mmHg 75%
    23:00 +11°C° 0 mm 1 m/S 724 mmHg 74%

    Morgen, 21 Oktober, Samstag

    Zeit Temperatur Niederschläge Wind Luftdruck Luftfeuchtigkeit
    00:00 +11°C° 0 mm 1 m/S 724 mmHg 74%
    01:00 +11°C° 0 mm 1 m/S 724 mmHg 74%
    02:00 +11°C° 0 mm 1 m/S 723 mmHg 74%
    03:00 +11°C° 0 mm 1 m/S 723 mmHg 74%
    04:00 +10°C° 0 mm 1 m/S 723 mmHg 73%
    05:00 +11°C° 0 mm 1 m/S 723 mmHg 73%
    06:00 +11°C° 0 mm 1 m/S 724 mmHg 72%
    07:00 +11°C° 0 mm 1 m/S 724 mmHg 71%
    08:00 +13°C° 0 mm 1 m/S 724 mmHg 65%
    09:00 +14°C° 0 mm 0 m/S 724 mmHg 60%
    10:00 +16°C° 0 mm 0 m/S 724 mmHg 54%
    11:00 +19°C° 0 mm 1 m/S 724 mmHg 51%
    12:00 +20°C° 0 mm 1 m/S 724 mmHg 49%
    13:00 +21°C° 0 mm 1 m/S 723 mmHg 47%
    14:00 +20°C° 0 mm 1 m/S 723 mmHg 51%
    15:00 +19°C° 0 mm 1 m/S 723 mmHg 56%
    16:00 +19°C° 0 mm 1 m/S 722 mmHg 60%
    17:00 +18°C° 0 mm 1 m/S 722 mmHg 64%
    18:00 +15°C° 0 mm 1 m/S 722 mmHg 68%
    19:00 +14°C° 0 mm 1 m/S 723 mmHg 72%
    20:00 +14°C° 0 mm 1 m/S 723 mmHg 73%
    21:00 +13°C° 0 mm 1 m/S 722 mmHg 74%
    22:00 +13°C° 0 mm 1 m/S 722 mmHg 75%
    23:00 +13°C° 0 mm 1 m/S 722 mmHg 76%

    übermorgen, 22 Oktober, Sonntag

    Zeit Temperatur Niederschläge Wind Luftdruck Luftfeuchtigkeit
    00:00 +13°C° 0 mm 1 m/S 722 mmHg 77%
    01:00 +12°C° 0 mm 1 m/S 722 mmHg 78%
    02:00 +12°C° 0 mm 1 m/S 722 mmHg 79%
    03:00 +12°C° 0 mm 1 m/S 722 mmHg 80%
    04:00 +12°C° 0 mm 1 m/S 722 mmHg 81%
    05:00 +12°C° 0 mm 1 m/S 722 mmHg 82%
    06:00 +12°C° 0 mm 1 m/S 722 mmHg 82%
    07:00 +12°C° 0 mm 2 m/S 722 mmHg 82%
    08:00 +12°C° 0 mm 3 m/S 722 mmHg 77%
    09:00 +13°C° 0 mm 4 m/S 723 mmHg 72%
    10:00 +13°C° 0 mm 4 m/S 723 mmHg 68%
    11:00 +13°C° 0,3 mm 5 m/S 723 mmHg 69%
    12:00 +12°C° 0,3 mm 5 m/S 722 mmHg 71%
    13:00 +10°C° 0,3 mm 5 m/S 722 mmHg 73%
    14:00 +10°C° 0,6 mm 5 m/S 722 mmHg 76%
    15:00 +9°C° 0,6 mm 5 m/S 721 mmHg 78%
    16:00 +10°C° 0,6 mm 4 m/S 721 mmHg 81%
    17:00 +8°C° 1,7 mm 5 m/S 721 mmHg 82%
    18:00 +8°C° 1,7 mm 5 m/S 722 mmHg 83%
    19:00 +7°C° 1,7 mm 5 m/S 722 mmHg 84%
    20:00 +7°C° 0,8 mm 5 m/S 722 mmHg 84%
    21:00 +7°C° 0,8 mm 5 m/S 722 mmHg 83%
    22:00 +7°C° 0,8 mm 5 m/S 722 mmHg 83%
    23:00 +7°C° 0,1 mm 5 m/S 722 mmHg 82%

    23 Oktober, Montag

    Zeit Temperatur Niederschläge Wind Luftdruck Luftfeuchtigkeit
    00:00 +7°C° 0,1 mm 5 m/S 722 mmHg 81%
    01:00 +7°C° 0,1 mm 5 m/S 721 mmHg 80%
    02:00 +5°C° 0 mm 6 m/S 721 mmHg 79%
    03:00 +5°C° 0 mm 6 m/S 721 mmHg 79%
    04:00 +5°C° 0 mm 6 m/S 721 mmHg 78%
    05:00 +5°C° 0 mm 7 m/S 721 mmHg 78%
    06:00 +5°C° 0 mm 7 m/S 721 mmHg 77%
    07:00 +5°C° 0 mm 7 m/S 721 mmHg 77%
    08:00 +6°C° 0 mm 8 m/S 721 mmHg 74%
    09:00 +6°C° 0 mm 8 m/S 721 mmHg 70%
    10:00 +7°C° 0 mm 8 m/S 721 mmHg 67%
    11:00 +7°C° 0 mm 8 m/S 721 mmHg 64%
    12:00 +7°C° 0 mm 8 m/S 721 mmHg 62%
    13:00 +9°C° 0 mm 8 m/S 721 mmHg 59%
    14:00 +9°C° 0 mm 8 m/S 721 mmHg 61%
    15:00 +9°C° 0 mm 7 m/S 721 mmHg 63%
    16:00 +8°C° 0 mm 7 m/S 721 mmHg 65%
    17:00 +8°C° 0 mm 7 m/S 721 mmHg 67%
    18:00 +8°C° 0 mm 7 m/S 721 mmHg 69%
    19:00 +6°C° 0 mm 7 m/S 722 mmHg 72%
    20:00 +6°C° 0 mm 7 m/S 722 mmHg 73%
    21:00 +6°C° 0 mm 7 m/S 722 mmHg 74%
    22:00 +6°C° 0 mm 7 m/S 723 mmHg 75%
    23:00 +6°C° 0 mm 7 m/S 723 mmHg 75%

    24 Oktober, Dienstag

    Zeit Temperatur Niederschläge Wind Luftdruck Luftfeuchtigkeit
    00:00 +6°C° 0 mm 7 m/S 723 mmHg 76%
    01:00 +5°C° 0 mm 7 m/S 723 mmHg 76%
    02:00 +6°C° 0 mm 7 m/S 723 mmHg 76%
    03:00 +6°C° 0 mm 7 m/S 723 mmHg 76%
    04:00 +6°C° 0 mm 7 m/S 724 mmHg 76%
    05:00 +6°C° 0 mm 7 m/S 724 mmHg 77%
    06:00 +5°C° 0 mm 7 m/S 724 mmHg 77%
    07:00 +5°C° 0 mm 7 m/S 725 mmHg 77%
    08:00 +6°C° 0 mm 7 m/S 725 mmHg 73%
    09:00 +7°C° 0 mm 8 m/S 726 mmHg 69%
    10:00 +9°C° 0 mm 8 m/S 726 mmHg 65%
    11:00 +10°C° 0 mm 8 m/S 726 mmHg 63%
    12:00 +10°C° 0 mm 8 m/S 726 mmHg 61%
    13:00 +11°C° 0 mm 8 m/S 726 mmHg 60%
    14:00 +10°C° 0 mm 7 m/S 726 mmHg 62%
    15:00 +10°C° 0 mm 6 m/S 727 mmHg 64%
    16:00 +10°C° 0 mm 6 m/S 727 mmHg 66%
    17:00 +9°C° 0 mm 5 m/S 727 mmHg 70%
    18:00 +8°C° 0 mm 5 m/S 728 mmHg 74%
    19:00 +7°C° 0 mm 5 m/S 728 mmHg 78%
    20:00 +7°C° 0 mm 4 m/S 728 mmHg 80%
    21:00 +7°C° 0 mm 4 m/S 729 mmHg 81%
    22:00 +7°C° 0 mm 3 m/S 729 mmHg 83%
    23:00 +7°C° 0 mm 3 m/S 729 mmHg 84%

    25 Oktober, Mittwoch

    Zeit Temperatur Niederschläge Wind Luftdruck Luftfeuchtigkeit
    00:00 +7°C° 0 mm 3 m/S 729 mmHg 85%
    01:00 +5°C° 0 mm 3 m/S 729 mmHg 86%
    02:00 +5°C° 0 mm 3 m/S 729 mmHg 87%
    03:00 +5°C° 0 mm 3 m/S 729 mmHg 88%
    04:00 +5°C° 0 mm 3 m/S 729 mmHg 89%
    05:00 +5°C° 0 mm 3 m/S 729 mmHg 89%
    06:00 +6°C° 0 mm 2 m/S 729 mmHg 90%
    07:00 +5°C° 0 mm 2 m/S 729 mmHg 90%
    08:00 +7°C° 0 mm 3 m/S 729 mmHg 82%
    09:00 +9°C° 0 mm 3 m/S 730 mmHg 74%
    10:00 +11°C° 0 mm 3 m/S 730 mmHg 66%
    11:00 +12°C° 0 mm 3 m/S 730 mmHg 63%
    12:00 +13°C° 0 mm 3 m/S 729 mmHg 60%
    13:00 +14°C° 0 mm 3 m/S 729 mmHg 56%
    14:00 +13°C° 0 mm 3 m/S 729 mmHg 60%
    15:00 +14°C° 0 mm 2 m/S 729 mmHg 64%
    16:00 +13°C° 0 mm 2 m/S 729 mmHg 67%
    17:00 +12°C° 0 mm 2 m/S 729 mmHg 71%
    18:00 +11°C° 0 mm 1 m/S 729 mmHg 75%
    19:00 +10°C° 0 mm 1 m/S 730 mmHg 79%
    20:00 +10°C° 0 mm 1 m/S 730 mmHg 79%
    21:00 +10°C° 0 mm 1 m/S 730 mmHg 80%
    22:00 +10°C° 0 mm 1 m/S 730 mmHg 80%
    23:00 +10°C° 0 mm 1 m/S 730 mmHg 80%
    Mehr zeigen